[[{"header":{"parameterUnit":"m.s-1","parameterCategory":1,"la1":30.2991,"la2":30.254,"lo1":-89.0895,"lo2":-89.0444,"dy":0.0017,"dx":0.0017,"nx":28,"ny":28,"refTime":"2025-03-14T09:00:00:Z","depth":0,"parameterNumber":2,"parameterNumberName":"U-component_of_WINDS"},"data":[0,0,0,0,0,0,0,0,0,0,0,0,0,0,0,0,0,0,0,0,0,0,0,0,0,0,0,0,0,0,0,0,0,0,0,0,0,0,0,0,0,0,0,0,0,0,0,0,0,0,0,0,0,0,0,0,0,0,-1.784,-1.784,0,-1.7908,-1.7909,-1.791,-1.7955,-1.7956,-1.7956,-1.7956,-1.8026,-1.8027,-1.8029,0,0,0,0,0,0,0,0,0,0,0,0,0,-1.7747,-1.7749,-1.784,-1.784,-1.7841,-1.7908,-1.7909,-1.791,-1.7955,-1.7956,-1.7956,-1.7956,-1.8025,-1.8027,-1.8029,0,0,0,0,0,0,0,0,0,0,0,0,0,-1.7799,-1.7749,-1.7839,-1.7872,-1.7876,-1.7908,-1.7909,-1.791,-1.7955,-1.7956,-1.7956,-1.7957,-1.8024,-1.8027,-1.8029,-1.8034,0,0,-1.8036,-1.8037,0,0,0,0,0,0,0,0,-1.7796,-1.7802,-1.7866,-1.787,-1.7874,-1.7924,-1.7902,-1.7952,-1.7955,-1.7925,-1.7956,-1.7957,-1.7991,-1.7996,-1.8008,-1.8037,-1.804,-1.8036,-1.8038,-1.8039,-1.8039,0,0,0,0,0,0,0,-1.7792,-1.7799,-1.7867,-1.7867,-1.7872,-1.7883,-1.7891,-1.7912,-1.7955,-1.7928,-1.7931,-1.7939,-1.7993,-1.8006,-1.801,-1.8041,-1.8036,-1.8038,-1.804,-1.8041,-1.8078,-1.8078,0,0,0,0,0,0,-1.7784,-1.7796,-1.7865,-1.7869,-1.7835,-1.7884,-1.7893,-1.7907,-1.7955,-1.7962,-1.7938,-1.794,-1.8002,-1.8007,-1.8013,-1.8022,-1.8039,-1.8041,-1.8042,-1.8079,-1.8078,-1.8078,0,0,0,0,0,0,-1.7781,-1.7789,-1.7862,-1.7834,-1.7844,-1.7885,-1.7901,-1.7908,-1.7921,-1.7963,-1.797,-1.7943,-1.8002,-1.8009,-1.8029,-1.8025,-1.8042,-1.8044,-1.8079,-1.8079,-1.8078,-1.804,0,0,0,0,0,0,-1.7779,-1.7788,-1.7791,-1.7833,-1.7845,-1.7876,-1.7901,-1.7909,-1.7925,-1.7929,-1.7969,-1.7976,-1.8003,-1.8025,-1.8031,-1.8028,-1.8046,-1.808,-1.8079,-1.8078,-1.8041,-1.8038,-1.8035,0,0,0,0,0,-1.7775,-1.7777,-1.7791,-1.7799,-1.7849,-1.7876,-1.7883,-1.7914,-1.7924,-1.7927,-1.7954,-1.7975,-1.8024,-1.8026,-1.8034,-1.8032,-1.808,-1.8079,-1.8078,-1.8043,-1.8038,-1.8035,0,0,0,0,0,0,-1.7732,-1.7783,-1.7799,-1.7814,-1.7841,-1.7884,-1.7888,-1.7908,-1.7932,-1.7934,-1.7972,-1.7981,-1.7996,-1.8016,-1.8017,-1.8039,-1.8055,-1.8055,-1.8025,-1.8022,-1.8018,-1.8013,-1.8048,0,0,0,0,0,-1.7725,-1.7743,-1.7786,-1.7796,-1.7808,-1.7846,-1.7859,-1.7881,-1.7909,-1.7921,-1.7949,-1.7976,-1.7997,-1.8011,-1.8033,-1.8045,-1.8054,-1.8047,-1.8044,-1.8041,-1.804,-1.8048,-1.8046,-1.8075,-1.8075,-1.8075,0,0,-1.7709,-1.7739,-1.7748,-1.7788,-1.7811,-1.7829,-1.7855,-1.7873,-1.7886,-1.7923,-1.7943,-1.7965,-1.7997,-1.8012,-1.8021,-1.803,-1.8035,-1.804,-1.8037,-1.8038,-1.8047,-1.8044,-1.8042,-1.8074,-1.8074,-1.8074,0,0,-1.769,-1.7715,-1.7725,-1.7748,-1.7782,-1.7808,-1.781,-1.785,-1.7866,-1.7887,-1.7915,-1.7932,-1.7968,-1.799,-1.8006,-1.7995,-1.8015,-1.8002,-1.7984,-1.7991,-1.7989,-1.7987,-1.7983,-1.7981,-1.8001,-1.8001,-1.8001,0,-1.7666,-1.7694,-1.7728,-1.7744,-1.7761,-1.7796,-1.7807,-1.7827,-1.7867,-1.7877,-1.7887,-1.7934,-1.7958,-1.7979,-1.7976,-1.7988,-1.7992,-1.7997,-1.7986,-1.7985,-1.7983,-1.798,-1.7978,-1.7999,-1.8,-1.8,-1.8,0,-1.7663,-1.7682,-1.7687,-1.7725,-1.7742,-1.7755,-1.7791,-1.7804,-1.7825,-1.7849,-1.7869,-1.79,-1.7928,-1.7935,-1.7955,-1.7959,-1.7964,-1.7979,-1.7995,-1.7978,-1.7975,-1.7974,-1.7996,-1.7997,-1.7998,-1.7998,0,0,-1.7618,-1.7675,-1.7676,-1.7694,-1.7735,-1.775,-1.7765,-1.7794,-1.7804,-1.7831,-1.7844,-1.7874,-1.7889,-1.7907,-1.793,-1.7936,-1.7926,-1.7951,-1.7953,-1.7945,-1.7932,-1.7919,-1.7917,-1.794,-1.794,-1.7939,-1.7929,0,-1.7605,-1.7634,-1.7665,-1.7683,-1.7701,-1.7735,-1.7748,-1.7774,-1.7797,-1.7815,-1.7841,-1.7861,-1.788,-1.7891,-1.7898,-1.7925,-1.7923,-1.7927,-1.7952,-1.7952,-1.7942,-1.7916,-1.7903,-1.7891,-1.7928,-1.7928,-1.7928,0,-1.7593,-1.7618,-1.7638,-1.7677,-1.7686,-1.7697,-1.7726,-1.7743,-1.7774,-1.779,-1.781,-1.7835,-1.7852,-1.7867,-1.7891,-1.7893,-1.7905,-1.792,-1.792,-1.7923,-1.7939,-1.7918,-1.7889,-1.7886,-1.7927,-1.7927,-1.7927,0,-1.7558,-1.7596,-1.7613,-1.7627,-1.7674,-1.7681,-1.7701,-1.7732,-1.7747,-1.7772,-1.7783,-1.7809,-1.7824,-1.7844,-1.7875,-1.7883,-1.7896,-1.7913,-1.791,-1.7909,-1.791,-1.791,-1.7882,-1.7919,-1.7919,-1.7919,-1.7919,0,-1.7539,-1.755,-1.7598,-1.7608,-1.7621,-1.7657,-1.7669,-1.7691,-1.7719,-1.7734,-1.7765,-1.7779,-1.7819,-1.7837,-1.7862,-1.7878,-1.7885,-1.7898,-1.7904,-1.7895,-1.7893,-1.7903,-1.7904,-1.7919,-1.7919,-1.7919,-1.7919,0,-1.7501,-1.7534,-1.7555,-1.7597,-1.7608,-1.7616,-1.7652,-1.7664,-1.7688,-1.7707,-1.7714,-1.7753,-1.7776,-1.7809,-1.7842,-1.7859,-1.7871,-1.7882,-1.7861,-1.7864,-1.7859,-1.7859,-1.7836,-1.7835,-1.7873,-1.7872,-1.7872,0,-1.7487,-1.7496,-1.754,-1.7552,-1.7571,-1.7591,-1.7607,-1.7642,-1.7657,-1.7693,-1.77,-1.7726,-1.7748,-1.7783,-1.7815,-1.784,-1.7851,-1.7842,-1.7855,-1.7845,-1.785,-1.7849,-1.785,-1.7838,-1.7837,-1.7837,-1.7836,0,-1.7458,-1.7474,-1.7496,-1.7523,-1.7541,-1.7565,-1.759,-1.7598,-1.7639,-1.7654,-1.7679,-1.7696,-1.773,-1.7755,-1.7785,-1.7805,-1.7827,-1.7832,-1.7833,-1.7823,-1.781,-1.7816,-1.7851,-1.7832,-1.7833,-1.7833,-1.7833,-1.7833,-1.7432,-1.7441,-1.7473,-1.7497,-1.7519,-1.7542,-1.7554,-1.7581,-1.7602,-1.7632,-1.7652,-1.7675,-1.7706,-1.7748,-1.7768,-1.7786,-1.7795,-1.7796,-1.7796,-1.7796,-1.7792,-1.7808,-1.7792,-1.7792,-1.7792,-1.7792,-1.7792,0,-1.7404,-1.7426,-1.7447,-1.7481,-1.7499,-1.7519,-1.7548,-1.7562,-1.7582,-1.7609,-1.763,-1.7658,-1.7682,-1.7716,-1.7742,-1.7751,-1.7762,-1.7757,-1.7756,-1.776,-1.7783,-1.7779,-1.7747,-1.7747,-1.7747,-1.7747,-1.7747,-1.7747,-1.7391,-1.7409,-1.7428,-1.7457,-1.748,-1.7503,-1.7517,-1.7538,-1.756,-1.7589,-1.761,-1.7631,-1.7661,-1.769,-1.7713,-1.7723,-1.7731,-1.7722,-1.7735,-1.7755,-1.7759,-1.7763,-1.776,-1.7724,-1.7724,-1.7711,-1.7711,-1.7711]},{"header":{"parameterUnit":"m.s-1","parameterCategory":1,"la1":30.2991,"la2":30.254,"lo1":-89.0895,"lo2":-89.0444,"dy":0.0017,"dx":0.0017,"nx":28,"ny":28,"refTime":"2025-03-14T09:00:00:Z","depth":0,"parameterNumber":3,"parameterNumberName":"V-component_of_WINDS"},"data":[0,0,0,0,0,0,0,0,0,0,0,0,0,0,0,0,0,0,0,0,0,0,0,0,0,0,0,0,0,0,0,0,0,0,0,0,0,0,0,0,0,0,0,0,0,0,0,0,0,0,0,0,0,0,0,0,0,0,9.3547,9.3548,0,9.3687,9.3689,9.3691,9.3678,9.3675,9.3673,9.3671,9.3814,9.382,9.3826,0,0,0,0,0,0,0,0,0,0,0,0,0,9.3268,9.3273,9.3546,9.3548,9.355,9.3687,9.3689,9.3691,9.3678,9.3675,9.3673,9.367,9.3812,9.3819,9.3826,0,0,0,0,0,0,0,0,0,0,0,0,0,9.3397,9.3275,9.3546,9.356,9.3563,9.3687,9.3689,9.3691,9.3679,9.3675,9.3672,9.3669,9.381,9.3819,9.3827,9.3946,0,0,9.3854,9.3858,0,0,0,0,0,0,0,0,9.339,9.3407,9.3556,9.3559,9.3563,9.3662,9.3643,9.3777,9.3679,9.3635,9.3671,9.3667,9.3766,9.3778,9.3812,9.3953,9.3959,9.3855,9.386,9.3864,9.3866,0,0,0,0,0,0,0,9.3381,9.3401,9.3602,9.3559,9.3562,9.356,9.3575,9.3669,9.3717,9.3638,9.3638,9.3655,9.3767,9.3803,9.3815,9.3961,9.3854,9.3862,9.3867,9.3871,9.4211,9.4215,0,0,0,0,0,0,9.3369,9.3394,9.3598,9.3606,9.3466,9.3568,9.3584,9.3633,9.3716,9.3725,9.3657,9.3653,9.379,9.3805,9.382,9.3968,9.3864,9.3872,9.3877,9.4207,9.4212,9.4216,0,0,0,0,0,0,9.3363,9.3387,9.3592,9.35,9.3526,9.3576,9.3631,9.3638,9.3674,9.373,9.3739,9.3685,9.3788,9.3808,9.3916,9.3972,9.3876,9.3884,9.4203,9.4209,9.4214,9.4262,0,0,0,0,0,0,9.3355,9.3385,9.343,9.3501,9.3531,9.3685,9.3634,9.3643,9.3689,9.3685,9.3759,9.3768,9.3787,9.3903,9.3925,9.3982,9.389,9.4198,9.4205,9.4212,9.4255,9.4268,9.428,0,0,0,0,0,9.3345,9.3436,9.3432,9.3457,9.3588,9.3688,9.3705,9.3726,9.3693,9.374,9.3777,9.3765,9.3962,9.3914,9.3938,9.4,9.4195,9.4203,9.4212,9.425,9.4266,9.4279,0,0,0,0,0,0,9.3369,9.3446,9.3442,9.3559,9.3618,9.3686,9.3745,9.3742,9.381,9.3804,9.3826,9.3843,9.3953,9.3987,9.3932,9.4121,9.4074,9.4088,9.4095,9.4111,9.4123,9.4113,9.3898,0,0,0,0,0,9.3388,9.3463,9.3526,9.3624,9.3653,9.3694,9.3739,9.375,9.3811,9.3835,9.388,9.394,9.4016,9.4065,9.4137,9.426,9.4278,9.4315,9.4327,9.4336,9.4348,9.442,9.4438,9.4244,9.4244,9.4244,0,0,9.3428,9.3479,9.3525,9.363,9.3676,9.3755,9.3715,9.3798,9.3857,9.3848,9.3954,9.3989,9.4057,9.4175,9.4228,9.4206,9.4406,9.4347,9.4355,9.4362,9.4431,9.4449,9.4465,9.425,9.4249,9.4248,0,0,9.3541,9.3587,9.3675,9.3723,9.3795,9.3822,9.3843,9.3913,9.3937,9.4044,9.404,9.411,9.4239,9.4289,9.4332,9.4468,9.4462,9.4491,9.4555,9.4624,9.4639,9.4653,9.4705,9.4723,9.4503,9.4503,9.4503,0,9.3582,9.3699,9.372,9.3806,9.3853,9.3851,9.3941,9.3987,9.4078,9.4112,9.4086,9.4251,9.4296,9.4427,9.4461,9.4494,9.4521,9.4483,9.4635,9.4649,9.4663,9.4712,9.4731,9.4506,9.4506,9.4506,9.4505,0,9.3747,9.3829,9.3892,9.3982,9.4037,9.4124,9.416,9.4212,9.422,9.425,9.4361,9.4416,9.4502,9.4533,9.454,9.4667,9.4651,9.463,9.4584,9.4684,9.4731,9.475,9.4511,9.451,9.4509,9.4508,0,0,9.3878,9.3982,9.4005,9.4047,9.4128,9.4192,9.428,9.4365,9.4412,9.4475,9.4552,9.4663,9.4646,9.4694,9.4707,9.4767,9.4876,9.4739,9.4742,9.4765,9.5023,9.5039,9.5061,9.4872,9.4876,9.4879,9.5018,0,9.4001,9.4159,9.4182,9.4321,9.4399,9.4399,9.4476,9.4535,9.4567,9.4638,9.4672,9.4752,9.4721,9.4751,9.4811,9.485,9.4929,9.484,9.4945,9.4949,9.493,9.5085,9.5102,9.5231,9.5036,9.5039,9.5041,0,9.4166,9.4237,9.4384,9.4458,9.4491,9.456,9.4642,9.4709,9.4777,9.4796,9.4852,9.4859,9.4952,9.4901,9.5032,9.4972,9.5016,9.5043,9.5048,9.506,9.5002,9.5103,9.5272,9.5292,9.507,9.5068,9.5066,0,9.425,9.4382,9.4488,9.4524,9.4612,9.4661,9.47,9.4765,9.4815,9.4887,9.4921,9.5001,9.5046,9.5109,9.5139,9.5098,9.5269,9.522,9.5289,9.5289,9.5326,9.5323,9.5506,9.5351,9.5351,9.535,9.535,0,9.4386,9.4477,9.4528,9.4593,9.4696,9.4723,9.4824,9.4861,9.4919,9.4993,9.4997,9.5067,9.51,9.5175,9.5199,9.5306,9.5325,9.5344,9.535,9.5345,9.5343,9.5375,9.5368,9.5356,9.5354,9.5353,9.5353,0,9.4498,9.4535,9.4651,9.4726,9.4747,9.482,9.4884,9.4949,9.4981,9.5075,9.5098,9.5149,9.5238,9.5274,9.5381,9.5397,9.5521,9.5519,9.5499,9.5501,9.557,9.5564,9.5781,9.5812,9.5635,9.5636,9.5638,0,9.4583,9.4653,9.4737,9.4787,9.4828,9.4908,9.4961,9.4991,9.5046,9.5131,9.5186,9.5275,9.5348,9.549,9.5537,9.5621,9.5622,9.5692,9.5634,9.5629,9.5626,9.5622,9.5631,9.5703,9.5705,9.5706,9.5707,0,9.4731,9.4747,9.4823,9.4907,9.4971,9.5038,9.5103,9.5144,9.5184,9.5246,9.5338,9.5395,9.5507,9.5596,9.5684,9.5724,9.5724,9.5726,9.5747,9.5743,9.573,9.5741,9.5531,9.572,9.5719,9.5718,9.5717,9.5717,9.4834,9.4898,9.4968,9.5054,9.5107,9.5169,9.5234,9.5276,9.5353,9.5447,9.546,9.5559,9.5629,9.5746,9.5791,9.587,9.5851,9.5881,9.5889,9.5896,9.5903,9.5717,9.5885,9.5885,9.5885,9.5884,9.5884,0,9.4985,9.5031,9.511,9.5202,9.5271,9.5265,9.5338,9.5395,9.5483,9.5547,9.562,9.5728,9.5815,9.587,9.5959,9.6012,9.6014,9.6035,9.6032,9.6042,9.5912,9.5887,9.6032,9.6032,9.6031,9.6031,9.6031,9.6031,9.5072,9.5181,9.5206,9.5343,9.5388,9.5486,9.5529,9.5587,9.5639,9.5759,9.5833,9.5868,9.593,9.6024,9.6105,9.6119,9.6153,9.6175,9.6188,9.6066,9.6051,9.6036,9.6012,9.6181,9.6181,9.6312,9.6313,9.6314]}]]